Location: Kapla
(46.2483°N, 15.0094°E)
Time: 13:13:45
(UTC+00:00)

Okean 1-7 - Pass Details

Date: 03 March 2021
Orbit: 589 x 619 km, 82.5° (Epoch: 14 April)

Event Time Altitude Azimuth Distance (km) Brightness Sun altitude
Rises 17:57:43 0° 356° (N) 2,897 6.6 -12.6°
Reaches altitude 10° 18:00:03 10° 3° (N) 1,983 5.7 -13.0°
Maximum altitude 18:04:16 44° 76° (ENE) 850 3.3 -13.8°
Drops below altitude 10° 18:08:24 10° 149° (SSE) 1,951 5.3 -14.5°
Enters shadow 18:08:53 - 151° (SSE) 2,141 5.5 -14.6°
